GFSMW_925_temp_225.txt.gz
Temp
24 20 18 18 18 19 18 18 17 17 17 16 17 17 16 17 16 16 17 17 17 16 16 15 15 15 14 14 14 13 13 12 11 10 9 9 10 10 11 10 10 10 11
23 21 18 17 17 18 18 17 17 17 17 17 16 16 16 16 16 17 17 17 17 16 15 15 14 13 13 13 13 12 12 11 11 10 9 9 8 9 10 10 9 10 10
21 19 17 17 16 16 16 17 16 16 17 16 16 16 17 17 16 17 18 18 17 16 15 15 14 13 13 12 12 12 12 11 11 11 11 9 11 9 6 7 8 8 8
18 17 16 16 16 16 16 16 16 17 16 17 17 17 18 17 18 19 18 17 17 16 16 15 14 13 13 11 12 12 11 11 10 10 10 11 9 10 8 5 5 7 7
17 17 17 16 15 15 15 16 16 16 17 17 17 18 18 18 18 18 17 17 16 16 15 15 14 13 12 12 11 10 10 11 10 10 10 10 8 7 7 7 5 5 6
16 16 14 14 14 15 15 16 16 16 16 16 17 18 19 18 18 17 17 16 16 15 15 14 13 13 12 12 11 10 10 10 10 10 10 10 8 7 6 8 6 6 5
16 15 14 14 14 14 15 15 16 15 16 17 18 19 19 18 18 17 16 15 15 14 14 13 13 13 13 11 10 9 9 9 9 9 9 9 9 9 8 8 5 5 3
17 17 16 16 15 15 15 15 15 15 17 17 18 18 18 17 17 16 15 14 14 14 13 13 12 12 12 11 10 8 8 8 8 8 8 8 8 9 9 8 5 4 2
17 17 16 15 15 15 15 15 16 16 17 18 17 17 17 16 15 14 14 14 14 15 13 12 11 11 11 10 9 8 7 7 7 7 7 6 7 7 8 7 7 6 3
16 16 16 15 15 15 15 15 16 16 17 17 16 16 15 14 14 15 15 14 14 14 14 13 12 11 10 10 9 7 7 7 6 6 5 6 6 6 7 7 6 6 5
17 17 16 15 15 15 14 15 15 15 15 15 15 15 15 15 14 14 13 13 14 13 13 12 12 10 9 9 8 7 6 6 6 6 5 5 5 5 6 6 6 6 6
17 17 17 15 15 15 14 14 14 14 14 14 14 14 14 13 12 13 13 13 12 12 12 12 11 10 8 7 6 6 6 5 5 5 5 5 4 4 4 5 5 5 6
17 16 16 15 15 14 13 13 13 14 14 14 13 13 13 13 13 13 12 12 12 11 11 11 10 9 9 7 7 6 5 5 5 5 5 4 3 3 3 3 4 5 5
17 17 16 16 15 14 13 12 13 13 13 13 13 13 13 13 13 12 11 11 10 10 9 8 7 7 6 6 6 6 5 5 5 5 4 4 3 2 2 3 3 4 3
17 15 15 16 14 12 11 12 12 12 13 13 13 13 13 12 11 11 10 10 10 9 9 8 7 6 6 5 5 5 5 4 4 4 4 3 3 2 2 2 2 2 0
17 17 16 15 13 12 11 11 12 12 13 13 13 12 11 11 10 10 9 9 8 7 7 6 6 6 5 5 5 5 5 4 4 4 3 3 3 1 1 2 2 3 0
17 16 14 13 12 11 11 11 12 12 12 12 11 11 10 9 9 8 7 7 7 6 6 6 6 6 5 5 5 5 5 5 4 4 3 3 2 1 2 2 2 2 2
15 13 13 11 10 11 11 12 12 11 11 10 10 10 9 8 7 6 6 5 5 5 5 5 6 6 5 5 5 5 4 4 4 4 2 2 1 1 2 2 1 1 1
13 13 11 11 10 10 11 11 11 10 9 10 9 9 8 6 5 5 5 4 4 4 5 5 5 5 5 5 5 4 4 3 3 3 2 2 1 1 2 2 1 0 0
11 11 10 10 10 10 11 11 10 9 9 9 9 8 7 6 5 5 4 4 4 4 4 4 4 4 4 4 4 4 3 3 2 2 2 2 1 1 2 2 1 0 0
10 10 10 11 10 10 11 10 9 9 8 8 7 7 6 5 5 4 4 4 4 3 4 3 3 3 3 4 4 4 3 3 2 2 1 1 1 1 1 2 2 2 1
9 10 10 9 9 9 9 8 7 6 7 7 7 5 4 4 4 3 3 3 3 2 2 2 2 2 2 2 2 2 2 2 2 1 1 1 1 1 1 1 1 1 1
9 9 9 7 6 6 7 6 5 6 6 5 4 3 3 3 2 2 2 2 2 1 1 1 1 1 1 1 2 2 2 1 1 1 1 1 1 0 -0 0 1 1 1
8 7 7 6 5 5 5 5 4 4 3 3 4 3 3 3 2 2 2 2 2 1 0 0 -0 -0 0 0 1 1 1 0 -0 0 0 0 0 -0 0 -0 -1 -0 0
5 6 6 5 5 4 4 4 3 3 3 4 4 3 3 3 3 2 2 1 1 1 0 0 -0 -1 -0 -0 -0 0 0 -0 0 -0 -1 -1 -1 -1 -1 -2 -2 -1 -1
4 5 4 4 4 3 3 3 2 1 2 2 2 2 2 2 2 2 1 1 1 1 1 0 -0 -0 -1 -1 -1 -1 -1 -1 -1 -1 -2 -2 -2 -2 -2 -2 -2 -2 -2

GFSMW_925_temp_228.txt.gz
Temp
33 31 28 27 26 26 25 23 21 20 18 17 16 16 16 16 17 16 17 17 17 17 17 18 18 16 16 16 15 14 13 13 12 11 11 11 11 11 12 11 11 12 11
31 29 27 25 24 24 24 23 22 20 18 17 17 17 16 17 17 16 17 17 17 17 16 15 15 15 14 14 14 13 13 13 12 12 11 11 10 9 10 10 10 11 11
29 29 27 25 24 23 23 23 22 20 17 17 17 17 16 17 16 18 18 18 17 16 14 15 15 15 13 13 13 13 13 13 12 12 14 12 12 12 12 10 9 9 9
27 26 26 24 23 22 21 22 22 18 17 17 17 17 18 20 20 19 20 19 16 16 15 15 15 15 15 13 13 12 12 12 13 11 12 12 12 14 11 9 8 7 8
26 26 24 24 23 21 17 18 19 16 16 17 18 19 18 20 19 19 18 18 16 15 15 15 14 14 14 14 13 12 11 12 12 11 11 11 10 9 11 11 7 6 7
26 25 23 20 20 17 16 16 16 16 16 17 18 18 19 19 19 18 18 17 17 16 14 15 15 13 13 13 12 12 11 12 11 11 11 11 9 8 8 8 10 9 9
25 23 22 20 18 16 15 15 16 16 17 17 17 18 18 19 19 18 18 18 17 16 15 14 13 13 12 12 11 11 11 11 10 11 11 11 11 11 11 11 9 7 4
25 23 22 21 19 17 16 16 16 16 17 17 18 18 19 19 19 18 18 17 17 16 15 14 13 12 11 10 11 11 11 10 9 10 10 11 11 11 9 9 8 7 4
25 24 23 21 19 18 17 17 18 18 18 18 18 18 17 17 17 16 15 16 15 15 14 13 12 12 11 10 10 10 10 9 8 8 8 8 8 9 9 9 8 8 5
25 24 23 22 21 20 20 19 19 20 19 18 18 18 17 16 15 15 14 14 14 13 12 12 11 11 10 10 10 10 10 9 8 8 7 7 7 8 8 8 9 8 8
25 24 23 22 21 20 20 19 18 20 19 18 17 16 15 15 14 14 14 13 13 12 12 12 12 11 11 11 10 10 10 10 9 8 7 7 7 7 7 7 8 8 7
25 25 24 22 21 20 20 19 18 18 18 16 16 15 14 13 13 13 13 13 12 12 12 12 11 11 11 11 11 10 10 9 8 8 7 8 8 7 7 6 6 5 5
24 24 23 23 22 20 20 19 18 17 16 15 14 14 13 13 13 13 13 12 12 12 11 11 11 11 11 11 10 10 9 8 7 6 7 6 6 7 6 5 4 4 4
24 24 24 23 21 21 20 19 18 16 15 15 14 14 13 13 13 12 12 12 11 11 11 11 11 11 10 9 8 7 7 6 6 6 5 5 5 4 4 4 3 3 3
24 24 23 23 22 20 19 18 17 15 14 14 14 13 12 12 11 11 11 11 10 10 10 10 10 10 9 7 7 6 6 5 5 5 5 5 4 4 3 2 2 2 3
24 23 22 22 21 20 18 16 15 14 13 13 13 13 12 12 11 11 10 10 10 10 9 9 9 9 7 6 5 5 5 5 5 6 5 4 4 3 2 2 2 2 2
23 22 22 21 19 18 17 16 14 13 13 13 13 12 12 12 11 11 10 10 10 9 8 8 8 6 7 6 5 5 5 5 5 5 4 4 3 3 2 2 2 2 2
21 20 21 20 17 16 15 14 14 13 13 13 13 12 11 11 11 10 10 9 8 8 6 6 6 5 6 6 5 5 4 4 4 4 4 4 3 3 2 2 2 1 -0
21 19 18 16 15 14 14 13 13 12 13 13 12 12 11 10 10 9 9 8 6 6 6 4 4 5 5 5 5 4 4 4 3 3 3 3 3 2 2 1 2 0 -0
17 17 15 14 14 14 13 13 13 13 13 12 12 10 9 9 9 9 8 7 6 6 4 4 4 4 4 4 4 5 4 3 3 3 3 2 2 2 2 1 1 -0 -1
15 14 13 14 13 12 12 12 12 12 11 10 9 8 8 8 8 8 7 7 6 5 3 3 3 3 3 2 3 3 3 3 3 2 2 2 2 2 1 1 1 1 -0
14 13 14 13 12 12 12 10 8 7 7 7 7 7 7 6 7 7 6 6 5 4 3 2 2 3 2 2 2 2 2 2 2 2 2 2 2 2 1 1 1 1 -0
14 14 13 11 10 11 11 10 7 6 5 6 4 4 3 3 3 4 4 4 3 3 3 2 2 1 1 1 1 2 2 2 1 1 1 1 1 1 1 1 1 0 -0
14 13 12 11 10 9 9 8 7 6 6 6 6 5 4 4 3 3 3 3 4 3 2 1 1 1 0 0 1 1 1 1 0 0 0 1 1 0 1 0 0 -0 -0
12 11 11 10 9 7 7 6 6 6 6 6 6 6 5 4 4 3 3 2 2 2 1 1 1 0 0 -0 -0 -0 0 0 0 -0 -0 -1 -0 -1 -0 -0 -1 -1 -1
9 9 8 8 7 7 6 5 4 4 5 5 5 4 3 3 3 2 2 2 2 2 2 1 0 -0 -1 -0 -0 -1 -0 -0 -0 -1 -1 -1 -1 -1 -1 -1 -2 -1 -1

GFSMW_925_temp_231.txt.gz
Temp
35 35 34 33 32 31 29 28 26 23 18 17 17 17 17 17 17 17 17 18 18 18 19 20 20 20 19 18 17 17 15 14 14 13 13 13 13 13 13 13 14 13 14
36 35 34 32 31 30 29 28 26 24 20 17 18 18 18 17 17 17 17 18 18 19 19 19 19 18 16 16 16 16 15 16 15 14 14 14 13 12 13 13 13 12 12
34 33 32 31 29 27 27 27 27 25 20 18 18 19 18 18 18 18 19 18 19 19 19 18 17 18 17 17 16 15 16 15 15 15 14 16 16 17 15 13 11 11 10
31 32 31 30 28 27 27 26 26 26 20 19 18 19 19 20 20 20 20 20 19 19 18 18 18 17 17 17 16 16 15 14 15 14 13 13 14 14 15 13 13 10 9
31 31 30 28 27 27 24 23 25 25 19 19 19 19 20 21 21 20 20 20 19 18 18 17 17 16 16 16 16 15 15 14 12 14 14 13 13 12 12 13 14 11 9
31 30 28 26 26 24 20 20 22 21 19 18 18 19 20 21 21 20 20 19 19 17 17 16 16 16 15 15 15 15 14 14 13 13 12 13 12 10 10 10 12 12 11
30 29 29 27 25 22 19 17 18 18 17 17 18 19 20 19 19 19 20 20 19 18 18 16 15 15 15 14 14 14 13 13 12 12 13 13 12 12 12 11 10 11 9
29 29 28 27 26 22 19 17 17 16 16 17 18 19 19 18 19 20 20 20 19 19 18 16 16 15 14 14 13 13 12 13 12 12 11 12 12 13 12 11 11 8 8
30 29 28 26 25 23 21 18 17 17 17 17 18 18 19 20 20 20 19 19 18 18 17 16 15 14 14 13 13 12 12 12 12 10 10 10 11 11 11 10 9 10 9
29 29 28 27 26 24 22 19 18 19 18 18 18 19 20 20 19 19 17 18 17 16 15 14 13 13 13 12 12 12 12 12 12 10 9 9 8 8 9 9 9 9 9
29 29 28 27 26 25 24 22 20 21 20 20 20 20 19 18 18 17 17 16 16 15 14 14 14 13 13 13 12 12 12 12 12 10 9 8 8 8 8 9 9 9 9
29 28 28 27 26 25 24 23 22 22 22 21 20 19 18 17 17 16 16 15 14 14 13 13 13 13 13 13 13 13 13 12 11 11 10 8 8 8 8 8 8 7 7
27 27 27 27 27 25 24 23 23 21 21 20 19 18 17 16 16 16 15 14 13 13 13 13 13 13 13 12 12 12 12 12 11 10 9 8 8 8 7 7 7 7 6
28 29 27 27 26 25 24 23 22 21 20 20 18 17 16 16 16 15 14 13 13 13 13 13 12 12 12 12 11 11 10 9 8 8 7 7 7 7 7 6 5 5 4
29 28 27 26 26 25 24 23 22 21 20 18 17 17 15 15 15 13 13 12 12 12 12 12 11 11 11 10 10 8 8 7 7 6 6 6 6 6 6 5 4 3 3
29 28 28 27 25 25 24 23 22 21 18 17 17 16 15 13 12 12 12 12 12 12 11 11 10 10 9 9 8 7 6 6 6 6 5 6 5 5 4 4 3 3 2
28 27 26 26 25 24 23 22 21 19 17 16 16 15 13 13 12 12 12 12 12 11 11 10 10 8 8 7 6 6 5 5 5 5 5 5 5 5 4 3 3 2 2
27 27 25 24 23 22 21 20 19 17 16 16 15 14 13 13 13 13 12 11 11 10 10 8 7 7 6 6 6 6 5 5 4 4 4 4 4 4 3 2 2 2 2
25 24 23 22 21 20 19 18 17 16 15 15 15 14 14 13 13 12 11 11 10 8 8 7 7 6 5 6 5 5 4 4 4 4 4 4 3 3 3 2 2 1 1
23 22 21 20 18 18 17 16 16 15 15 15 14 14 13 13 12 11 11 10 9 9 8 6 5 4 4 5 4 4 3 4 4 4 4 3 3 3 2 2 2 0 -0
21 20 19 18 17 16 15 15 14 14 14 14 14 13 12 11 11 11 10 9 8 6 6 4 4 4 4 3 3 3 2 3 3 3 3 3 3 2 2 2 1 1 0
19 17 18 17 16 15 14 14 11 12 12 12 11 10 10 10 9 9 9 9 7 6 6 4 3 4 3 2 2 2 2 2 2 2 2 3 2 2 1 1 1 1 -0
18 17 18 15 14 14 14 12 9 10 9 9 8 8 6 5 6 7 7 6 6 6 5 5 4 3 2 2 2 2 2 2 2 1 2 2 2 1 1 1 1 0 -1
17 17 16 14 14 14 13 11 10 9 8 7 6 6 5 6 4 4 4 4 5 5 4 2 2 2 1 1 1 1 1 1 1 1 1 1 1 1 1 1 0 -0 -0
16 15 15 14 13 12 10 9 8 8 8 8 8 8 8 6 6 5 4 3 3 3 2 2 2 1 0 0 -0 -0 -0 0 0 0 -0 -1 -0 -0 -0 -0 -0 -0 -1
15 14 14 13 11 10 8 7 6 7 7 7 7 7 5 4 4 4 3 2 2 2 2 2 2 1 -0 -0 -1 -0 -1 -0 -0 -1 -1 -1 -1 -1 -1 -1 -1 -1 -1

GFSMW_925_temp_237.txt.gz
Temp
28 32 34 33 31 28 25 23 22 21 20 19 19 18 18 19 19 20 20 19 19 19 19 19 19 18 18 19 19 17 17 16 16 15 15 15 15 15 15 15 14 14 14
28 29 32 33 31 27 25 23 22 21 20 20 19 18 18 18 19 20 19 19 19 18 19 19 19 19 18 18 18 17 17 17 16 15 13 11 13 14 14 14 14 15 15
28 28 27 28 30 26 24 23 21 22 20 20 19 18 18 18 18 19 19 18 19 18 18 18 19 19 19 19 18 18 17 16 15 15 14 11 10 11 14 15 15 14 14
27 27 25 25 28 26 25 23 21 20 20 20 18 18 18 18 18 18 18 17 18 18 18 18 18 19 19 18 18 17 16 16 15 15 15 14 14 12 10 13 14 14 13
25 25 24 26 28 28 28 25 24 22 21 19 18 18 18 18 18 17 18 17 18 18 18 18 18 17 18 18 17 16 16 15 15 14 14 14 14 13 10 11 11 13 13
24 24 26 28 27 28 27 26 23 23 21 19 18 17 17 18 18 17 18 18 17 18 18 18 17 17 17 17 17 17 16 15 15 14 14 13 13 12 11 9 10 10 11
25 22 22 22 24 25 25 24 23 21 20 19 18 18 18 18 18 18 18 17 17 17 18 17 16 17 17 17 16 16 15 15 14 14 14 13 13 13 12 11 11 10 11
24 23 22 22 24 23 23 23 22 20 19 19 19 18 18 18 18 18 18 17 17 18 17 16 16 17 17 16 16 15 15 14 14 13 13 13 13 12 12 11 10 9 8
24 24 21 22 23 23 23 23 21 20 19 19 19 18 18 19 18 18 19 18 18 17 16 16 16 17 16 15 15 15 14 13 13 13 13 12 12 12 11 11 10 9 8
24 22 22 21 24 24 23 22 20 19 19 18 18 18 18 18 18 18 18 17 17 17 16 16 16 16 15 15 14 14 13 13 13 12 12 12 12 11 12 11 10 10 9
24 22 21 23 24 24 23 22 20 20 19 18 18 17 17 17 18 18 17 17 17 17 17 17 16 15 15 14 13 13 13 12 12 12 12 11 12 11 11 10 10 10 9
23 22 21 22 23 23 22 21 21 19 19 19 18 18 18 18 18 18 17 17 17 17 17 16 15 15 14 13 13 13 12 11 12 12 11 11 10 10 10 9 9 8 8
24 22 22 21 21 23 22 21 21 21 21 19 19 18 18 18 17 18 17 17 17 16 15 15 14 13 13 13 12 11 10 12 11 10 9 9 9 8 8 8 8 8 8
23 22 21 20 21 23 23 24 22 21 21 20 19 19 19 19 18 18 17 17 16 15 15 14 13 13 12 11 10 10 11 10 9 9 8 7 7 8 8 7 7 7 6
24 22 22 22 21 21 23 24 24 24 22 21 21 20 19 19 18 17 16 16 15 15 14 13 12 12 10 9 10 10 9 9 8 7 7 7 7 7 7 6 6 6 5
25 25 23 23 23 23 22 23 24 24 23 22 21 20 18 18 17 16 16 15 14 13 13 12 11 10 9 9 9 9 8 7 6 6 6 6 5 5 6 6 6 5 5
24 25 24 22 21 23 23 22 23 23 22 21 20 18 17 17 16 15 15 14 13 12 12 11 10 9 9 9 8 7 7 6 6 5 4 5 6 5 5 5 5 5 4
24 22 22 20 21 22 22 22 22 21 21 20 19 17 16 16 15 14 13 13 12 11 11 9 9 9 9 8 7 6 6 5 6 5 5 4 4 4 4 5 4 4 3
21 20 20 21 21 21 21 21 20 20 19 18 17 16 15 14 13 12 12 12 11 10 9 9 9 9 7 6 5 5 5 4 4 5 5 4 4 5 4 3 3 3 3
19 18 19 19 20 19 20 19 18 18 17 17 16 15 14 13 12 12 12 11 10 10 9 9 8 7 6 6 5 5 4 3 2 2 3 3 3 4 3 3 3 2 2
17 19 18 17 18 18 18 16 16 16 16 16 15 14 13 13 12 12 11 10 10 9 9 8 7 6 6 5 4 4 3 2 2 3 2 2 2 3 3 3 3 2 2
17 18 17 17 17 17 17 14 14 15 15 15 14 13 13 12 12 11 10 10 9 8 7 7 6 6 5 4 3 3 2 1 1 2 1 1 2 2 3 2 2 1 1
15 16 16 15 15 15 15 11 11 13 13 13 11 10 10 10 10 9 9 8 8 7 6 6 5 5 4 3 2 2 1 0 0 1 1 1 1 2 2 2 1 1 1
11 11 11 13 13 13 12 11 10 10 9 8 8 9 9 8 8 8 8 7 7 6 6 5 4 4 4 2 1 1 0 -0 -1 0 1 1 1 1 1 1 1 1 1
10 10 10 10 9 10 10 9 9 10 8 7 7 7 7 7 7 7 7 6 5 5 4 4 4 4 3 2 0 -1 -1 -1 -1 -0 -0 0 0 0 0 0 -0 -0 -0
11 10 11 10 9 9 8 8 8 8 7 7 6 6 6 6 5 5 5 5 4 4 3 3 3 3 2 0 -1 -1 -1 -1 -1 -1 -1 -1 -1 -1 -1 -1 -1 -1 -1

GFSMW_925_temp_243.txt.gz
Temp
23 25 26 25 25 24 22 21 20 19 19 18 18 18 18 17 17 19 20 20 20 19 19 19 19 19 18 18 19 18 17 17 17 17 16 16 16 16 16 16 16 16 15
24 24 25 25 24 24 23 22 21 20 20 19 18 18 18 18 17 18 19 20 20 20 19 19 19 19 18 18 18 18 17 16 16 15 13 11 14 15 16 16 15 16 15
25 24 21 22 23 24 23 22 21 21 20 19 18 18 19 19 18 18 19 19 19 19 19 19 19 19 19 18 18 18 17 15 15 16 15 10 10 10 14 15 15 15 15
22 23 22 19 22 23 23 22 21 20 19 18 18 18 19 18 18 18 18 19 19 19 20 20 20 18 18 17 17 18 17 15 14 13 14 15 14 10 10 13 14 14 14
19 21 21 22 23 23 22 21 20 19 18 18 18 18 18 18 18 18 18 18 18 19 19 19 19 19 17 17 16 16 15 13 11 10 12 12 12 12 10 9 10 12 13
20 19 19 20 21 22 22 21 19 18 18 18 18 18 18 18 18 18 18 18 18 18 18 19 19 19 18 17 16 15 13 13 13 12 12 14 13 11 9 8 8 9 11
19 19 19 17 19 20 21 21 21 20 20 20 19 19 19 18 18 18 18 17 17 17 18 18 18 18 17 16 15 15 14 13 12 11 13 14 13 13 12 10 9 8 11
20 20 21 19 19 20 21 21 21 20 19 18 18 19 19 19 19 19 18 17 17 17 18 17 17 17 16 15 15 14 12 12 12 12 14 14 13 12 12 11 10 9 9
22 21 20 20 21 21 22 23 22 21 21 21 20 19 18 18 18 17 17 17 18 18 18 18 17 16 15 14 13 13 12 12 13 14 13 13 12 12 12 11 10 10 9
21 20 19 20 21 22 22 22 23 23 23 23 22 21 20 18 17 17 17 17 17 18 17 17 16 16 15 14 13 13 12 12 13 13 12 12 12 12 11 10 10 11 9
21 20 19 22 24 23 20 22 22 22 22 22 22 21 21 20 19 18 17 18 18 17 17 16 16 15 13 13 13 12 12 13 13 12 12 12 11 10 9 10 10 10 10
20 19 19 20 20 21 22 20 19 20 22 22 21 21 20 19 18 18 18 18 17 17 17 16 15 14 13 13 13 12 13 13 12 12 11 10 9 9 9 9 9 9 9
19 19 18 18 19 20 20 21 22 22 22 20 20 19 20 18 19 19 19 18 17 17 16 15 15 14 14 13 12 13 12 12 12 11 10 9 8 9 9 8 8 7 7
20 21 21 19 18 20 20 20 20 22 22 20 19 19 20 20 20 20 19 18 17 16 16 15 14 14 13 13 12 12 12 11 11 10 8 8 8 9 8 7 7 6 6
21 20 21 20 18 18 20 21 22 22 20 19 18 18 20 20 20 19 19 18 17 16 15 15 14 13 13 12 12 12 11 10 9 8 7 7 8 8 7 6 6 6 5
20 20 20 20 19 19 19 21 21 22 20 18 17 18 18 19 19 18 18 16 16 15 14 14 13 12 12 12 12 11 10 9 8 7 7 7 8 7 6 5 5 5 5
17 16 16 16 16 17 18 18 19 20 20 18 18 17 18 18 18 17 16 15 15 14 13 12 12 12 11 11 10 10 8 8 7 7 7 6 6 6 5 5 5 5 5
14 14 14 14 14 15 16 17 17 17 16 16 16 16 16 16 16 15 14 13 13 12 12 11 11 11 10 9 9 8 7 7 6 6 5 5 5 4 4 4 4 4 4
12 12 13 14 14 15 17 18 17 16 16 15 15 15 16 16 15 14 13 12 11 10 10 10 9 10 8 7 7 6 6 5 5 5 5 4 3 4 4 4 4 3 4
12 12 13 14 15 15 17 17 16 16 14 14 14 15 14 13 13 12 11 10 10 9 9 8 8 8 7 6 6 5 6 5 4 3 3 3 2 3 3 3 3 2 4
12 12 13 13 12 13 14 14 13 12 13 14 15 15 16 15 14 12 11 10 9 8 6 6 6 6 6 4 5 5 4 4 4 3 3 3 2 2 2 2 2 3 3
11 11 11 11 12 13 14 12 12 13 13 14 13 13 12 11 11 11 10 9 8 6 6 6 5 5 5 4 4 4 4 4 3 3 2 1 1 1 1 2 2 2 2
10 10 10 10 11 11 12 12 13 13 12 11 11 10 10 10 9 8 7 6 5 4 4 4 4 5 4 4 4 4 4 3 2 2 1 0 -0 -0 -0 1 1 1 1
9 10 10 9 9 10 8 7 8 8 8 8 8 7 7 7 6 6 6 6 5 5 5 4 4 3 3 4 3 3 2 2 1 0 -0 -0 -0 0 0 1 1 1 1
8 8 7 6 5 5 5 5 6 7 6 6 5 5 4 4 4 4 4 4 4 4 3 3 3 3 3 4 3 2 2 1 0 -1 -1 -1 -1 -0 0 0 0 1 0
4 4 3 2 2 2 1 1 3 4 4 4 4 4 4 3 3 2 2 2 3 3 2 2 2 2 3 3 2 2 1 0 -1 -1 -1 -1 -1 -1 -0 -1 -1 -1 -0

GFSMW_925_temp_249.txt.gz
Temp
27 27 26 25 24 23 22 22 20 20 19 18 18 18 18 18 17 17 17 17 17 17 17 17 17 16 17 17 16 17 17 17 16 16 16 15 16 15 14 13 13 15 15
27 27 25 24 23 24 22 22 21 20 19 19 19 20 19 19 18 18 17 17 17 16 16 17 17 16 16 16 16 16 17 17 17 16 16 14 13 11 12 12 14 13 14
25 26 24 23 23 23 23 22 22 21 19 20 19 18 18 18 18 18 18 17 16 16 16 17 17 16 16 16 16 16 16 17 16 15 16 11 13 10 10 10 11 12 14
24 23 22 22 21 22 23 22 22 21 20 19 19 19 20 20 20 19 19 18 17 17 17 17 17 17 17 16 17 16 16 16 16 14 14 12 12 10 10 10 10 12 12
23 23 22 20 21 21 21 21 22 21 20 19 19 19 19 20 20 19 18 18 17 17 17 18 17 17 17 17 17 16 16 16 16 14 11 10 11 10 10 11 9 9 10
23 23 22 20 20 19 22 23 22 21 20 19 18 19 19 19 18 18 18 17 17 17 17 17 17 17 17 17 17 17 16 16 15 15 13 12 11 10 10 10 9 10 10
23 24 24 23 21 20 19 20 21 20 20 19 19 18 18 18 18 18 18 18 18 17 18 17 17 17 17 17 17 16 16 16 15 14 13 12 11 12 11 11 10 10 11
24 24 24 23 22 20 20 19 18 19 19 18 19 18 18 18 18 18 18 18 18 18 17 17 16 17 17 16 16 16 16 16 14 13 12 12 11 11 11 12 11 13 13
23 24 23 23 22 23 22 22 21 19 19 17 17 18 17 17 18 18 18 17 18 18 17 17 17 17 16 16 16 16 16 15 14 13 11 12 11 11 11 12 12 13 13
23 23 23 22 22 24 24 24 23 22 21 20 18 17 17 18 17 17 17 17 17 17 17 16 16 16 16 16 16 16 15 14 13 12 11 11 10 11 11 11 12 12 13
22 22 21 21 20 21 21 22 22 22 21 20 19 18 17 17 17 17 17 17 17 16 16 16 16 16 17 17 16 16 15 13 12 11 12 11 11 11 11 11 11 11 10
21 22 21 20 20 18 19 19 18 18 20 20 19 18 17 17 17 17 16 16 17 17 16 15 16 16 16 16 15 15 14 13 11 12 11 11 11 10 11 10 11 10 9
19 19 19 18 18 17 16 16 16 17 17 17 17 17 17 17 17 17 16 16 16 16 16 16 15 16 16 15 15 15 14 13 12 11 11 11 10 10 10 10 10 9 9
17 17 17 17 16 16 15 15 15 15 16 16 16 17 17 16 17 18 17 17 16 16 16 15 16 16 16 15 15 14 13 13 12 11 11 10 11 11 10 10 10 10 7
17 17 17 16 16 15 15 15 15 15 15 15 16 15 15 16 16 17 17 16 15 15 15 15 15 15 15 15 14 13 13 12 11 11 11 10 11 11 12 11 9 7 7
16 16 16 15 15 14 13 14 14 13 14 14 14 14 14 14 15 14 14 14 14 14 14 14 14 14 14 15 14 13 12 11 10 11 9 9 10 11 10 9 8 8 6
15 15 14 14 13 13 12 13 13 13 13 13 13 12 12 13 13 13 13 13 13 13 13 13 13 13 13 13 13 13 12 11 10 9 8 6 7 7 7 6 6 5 5
14 13 13 13 12 12 12 12 12 12 11 11 12 11 11 12 12 12 11 11 11 11 11 11 11 12 12 12 11 11 9 8 7 6 6 7 6 5 5 4 4 4 4
13 12 12 12 11 11 11 11 11 11 11 10 10 10 10 10 10 10 10 10 10 10 10 9 10 10 9 9 9 8 6 6 5 5 5 4 4 4 3 2 3 3 3
12 12 11 11 11 10 10 10 9 9 8 8 8 8 8 8 8 8 8 8 8 8 8 8 8 8 8 6 5 6 5 4 4 3 3 3 3 2 2 2 2 2 3
12 11 11 10 8 8 8 8 7 6 6 7 7 7 7 7 6 7 7 6 7 7 6 5 5 5 4 4 4 4 4 4 3 2 1 1 1 0 1 1 1 2 3
11 10 9 7 5 5 6 6 5 4 5 6 6 5 5 5 5 5 5 5 5 4 3 3 3 3 3 3 3 3 2 2 1 0 0 0 0 0 0 1 1 1 2
9 8 7 4 3 3 2 3 3 3 4 4 4 3 3 3 3 3 3 2 2 1 1 0 1 1 2 2 2 2 1 1 1 1 0 0 -0 -0 -0 0 0 1 1
6 5 4 3 2 2 2 2 2 2 2 2 3 3 2 2 2 2 2 2 2 2 2 2 2 2 2 2 2 1 1 1 1 0 0 -0 -0 -0 -0 -0 -0 -0 0
3 3 3 3 2 2 1 1 1 1 2 1 1 1 1 1 1 1 1 1 1 1 1 1 1 1 1 1 1 1 2 2 1 -0 -0 -1 -1 -1 -0 -0 -0 -0 0
3 3 3 1 0 -1 -1 -1 -1 -0 -0 -0 -0 -1 -0 -0 -1 -1 -1 -0 -0 0 0 1 1 1 1 1 1 1 1 1 0 -1 -1 -1 -1 -1 -1 -0 -0 -0 -0

GFSMW_925_temp_252.txt.gz
Temp
34 33 33 31 30 29 28 27 25 24 23 22 22 22 23 22 22 22 22 21 20 20 19 20 20 20 20 20 21 20 19 20 19 19 19 19 18 18 16 14 16 15 16
34 33 31 30 29 29 28 27 26 25 23 24 23 24 24 24 23 23 22 21 20 20 20 20 20 21 20 20 20 19 19 19 20 18 18 18 14 13 13 13 14 14 14
31 31 30 28 28 28 28 28 27 26 25 23 24 23 23 23 24 23 22 21 20 20 19 20 20 20 20 20 19 19 19 20 20 18 18 14 16 13 10 11 12 12 12
31 30 30 28 27 26 26 27 27 26 25 24 23 24 24 24 25 24 24 23 21 20 19 19 19 19 20 18 17 17 17 18 19 17 17 16 16 14 11 10 10 10 10
29 30 29 27 26 25 24 25 26 25 25 24 22 23 23 24 24 24 24 23 22 20 19 18 17 17 17 17 17 17 17 17 17 16 14 13 12 11 12 11 10 9 9
30 30 29 28 27 24 23 23 24 25 24 23 22 22 23 23 23 24 23 22 22 20 18 17 17 17 17 17 17 17 17 17 17 17 15 14 13 12 11 13 10 11 10
30 30 30 30 27 26 25 24 24 24 23 23 22 22 22 22 22 22 23 22 22 20 19 18 17 17 17 17 17 17 17 17 16 16 15 15 15 14 12 12 11 13 12
29 29 29 29 28 27 26 24 24 24 23 22 22 22 22 22 22 22 22 22 22 22 21 19 17 17 17 17 17 17 17 16 16 16 16 14 14 13 12 12 13 10 10
29 29 29 28 28 27 25 24 24 25 24 23 22 22 21 21 21 21 21 22 21 21 21 21 19 17 17 17 17 17 17 16 16 15 15 14 13 13 12 11 12 13 13
28 28 28 26 25 24 24 23 23 23 23 23 23 22 22 21 21 20 21 21 20 20 20 19 18 18 18 17 17 17 16 16 16 15 14 13 13 12 11 12 11 12 15
27 27 26 25 24 23 22 22 21 21 21 21 21 21 21 20 20 20 20 20 19 18 19 18 18 17 17 17 16 16 16 16 15 14 13 13 12 11 10 10 11 13 14
26 26 25 24 22 21 21 21 20 19 19 19 19 19 19 19 19 20 19 18 18 17 17 18 18 18 17 16 16 16 16 15 14 14 12 12 11 11 10 10 11 12 13
24 24 23 23 21 20 20 20 19 18 19 19 19 19 19 19 19 19 19 19 19 19 19 19 18 17 16 16 15 16 16 15 14 14 12 12 11 11 10 11 12 12 13
22 22 22 21 20 19 19 18 18 17 18 18 18 17 17 18 18 18 18 18 18 18 17 17 16 16 16 15 15 15 14 15 15 14 13 12 12 11 11 11 12 12 12
22 21 21 20 19 18 18 17 17 16 16 16 16 16 16 17 17 16 16 16 15 15 15 15 15 15 15 15 15 14 14 14 13 13 12 12 12 11 11 11 12 12 11
21 20 20 19 18 17 17 16 16 15 15 16 15 15 15 15 15 15 15 14 14 13 13 13 13 14 14 14 14 14 13 13 12 12 12 11 11 10 10 11 11 11 11
20 20 19 18 17 16 15 15 15 15 14 14 14 13 14 14 14 14 14 14 13 13 13 13 12 12 12 12 12 12 12 12 12 11 11 10 10 9 8 8 7 7 6
19 18 18 17 16 15 15 15 14 14 13 12 13 12 12 13 13 13 12 12 12 12 12 12 12 12 11 9 9 9 10 10 10 10 9 8 7 6 7 7 6 5 5
18 17 16 15 14 14 14 14 13 13 12 11 11 11 10 11 11 11 11 11 11 11 10 10 9 9 8 7 7 6 6 6 5 5 5 6 5 5 5 5 4 3 4
17 16 15 14 13 11 12 11 11 11 10 10 10 10 10 10 9 10 9 9 9 8 6 5 5 4 3 3 4 4 3 3 3 3 3 3 3 3 3 3 3 2 2
15 14 13 12 10 10 10 10 9 8 8 8 8 8 7 8 8 8 8 7 6 4 2 2 2 2 3 3 4 4 4 3 3 2 2 2 2 1 1 1 1 1 1
14 14 11 9 8 7 8 7 6 5 6 7 6 6 5 6 6 5 5 4 4 2 2 2 3 3 4 3 3 3 2 2 2 1 1 1 1 0 -0 -0 0 0 1
12 11 9 7 5 4 4 4 4 4 4 4 4 4 3 3 3 2 3 3 3 2 2 2 3 3 3 3 2 2 1 1 2 1 1 1 0 0 -0 -0 -0 -0 -0
9 7 5 5 4 3 2 2 2 3 3 3 3 2 2 1 1 1 1 1 0 0 1 2 2 2 2 2 2 2 2 2 2 1 1 0 -0 -0 -0 -0 -0 -0 -0
5 5 5 4 2 1 1 0 1 1 2 1 1 1 1 1 1 0 -0 -1 -1 -1 -0 -0 0 0 0 1 1 1 1 2 1 0 0 0 -0 -1 -0 -0 -0 -0 -0
5 4 3 2 0 0 -0 -0 -0 -0 0 1 -0 -1 -0 -0 -1 -1 -0 -0 -0 -0 -0 -0 -0 -0 0 1 1 1 1 1 1 -0 -0 -0 -0 -0 -0 -0 -0 -0 -0

GFSMW_925_temp_258.txt.gz
Temp
35 36 36 36 36 36 35 30 28 27 26 24 23 23 23 23 24 24 24 24 24 23 22 21 21 22 22 22 22 22 22 22 22 23 22 22 21 21 21 21 21 21 20
35 35 35 35 35 35 35 33 29 27 26 25 24 23 23 24 24 24 24 24 24 24 23 21 21 21 21 22 22 22 21 22 22 21 21 19 20 20 20 20 20 19 19
34 35 34 34 33 33 33 33 32 28 26 26 25 24 24 24 24 25 24 24 24 24 24 23 21 21 22 21 21 21 21 21 21 21 20 17 17 17 18 18 18 18 18
34 33 32 31 30 30 30 30 31 30 27 26 26 25 25 24 25 25 25 25 25 24 24 23 22 22 21 21 22 21 21 21 21 21 20 20 19 16 14 14 15 16 16
33 32 31 30 29 28 28 28 29 30 29 27 26 26 26 25 25 25 25 26 26 25 24 23 22 21 21 21 21 22 21 21 20 20 20 19 19 19 17 17 12 12 13
32 32 31 29 27 26 27 27 28 29 29 28 27 26 26 25 25 25 25 25 25 25 25 23 22 22 21 21 21 21 21 21 20 20 20 18 15 14 14 14 12 12 13
31 30 30 29 28 27 27 27 27 27 27 27 26 26 25 24 24 23 23 24 24 24 25 25 24 22 21 21 20 20 20 20 19 19 19 19 17 17 16 15 15 12 13
31 31 29 28 28 27 27 27 27 26 26 25 25 25 25 24 24 23 23 23 23 23 24 24 24 23 23 22 21 20 19 19 18 18 18 17 17 17 16 16 14 12 12
30 30 29 28 28 26 25 25 26 26 25 25 24 24 24 24 24 23 23 23 23 22 22 22 23 22 22 22 20 18 18 18 18 17 17 17 17 16 16 15 15 14 15
30 29 28 27 27 25 24 23 23 22 22 22 21 21 21 21 21 21 21 21 21 21 21 21 21 21 20 19 20 18 17 17 17 17 17 17 17 17 16 15 14 14 14
29 28 27 26 25 23 22 22 21 21 20 20 19 19 19 19 19 19 18 18 19 19 18 18 18 19 20 19 18 18 17 17 17 17 16 16 16 16 15 15 14 13 13
28 27 26 25 24 23 22 21 20 20 19 18 18 18 18 18 18 17 17 17 17 17 17 16 17 16 16 16 17 18 18 17 17 17 16 16 15 15 15 14 13 13 13
27 26 25 24 23 22 21 20 19 20 19 19 18 17 17 17 17 17 16 16 16 16 15 15 14 14 14 14 14 15 16 17 18 17 17 16 15 14 14 14 13 13 13
26 25 24 23 22 22 21 20 19 19 19 18 17 16 16 17 16 16 16 15 15 15 15 14 14 14 13 12 12 12 12 13 14 15 15 15 14 14 13 13 13 12 12
26 25 23 22 22 20 20 19 18 18 17 17 16 15 16 15 15 15 14 14 14 13 13 13 13 12 12 9 10 10 11 10 11 11 12 13 13 14 13 13 13 12 12
25 25 24 23 22 21 19 19 17 17 17 16 16 15 15 15 14 14 13 12 12 12 11 10 9 7 7 8 8 8 8 7 7 7 8 9 9 10 10 11 11 11 11
26 24 23 22 20 19 18 18 17 16 16 15 15 14 14 14 13 13 12 11 11 9 8 7 6 5 5 5 5 5 5 6 5 5 5 6 6 7 7 7 7 6 7
25 23 21 19 19 18 18 17 16 15 14 14 13 13 12 12 11 11 10 9 8 6 5 5 5 5 4 5 5 4 4 4 3 3 3 3 3 3 4 5 5 5 5
23 21 19 18 17 16 16 15 14 13 13 12 11 11 11 11 10 9 8 7 6 4 4 4 4 4 3 3 4 4 4 4 3 2 2 2 2 3 3 3 3 4 3
20 19 17 16 15 14 14 13 12 11 11 10 10 9 9 8 7 6 6 5 5 5 4 4 3 3 3 3 3 2 2 2 3 3 2 2 2 2 2 2 1 2 1
19 17 15 14 13 13 11 9 9 9 9 8 8 6 6 6 5 5 4 4 4 3 3 3 4 3 3 2 3 3 2 2 2 2 2 2 2 2 2 1 1 0 1
16 14 12 10 10 10 9 8 8 8 7 6 5 5 4 4 4 3 2 2 1 1 1 1 1 2 1 2 1 2 2 2 1 1 1 1 2 2 2 1 0 0 0
14 11 9 7 7 6 6 6 6 6 5 5 5 4 3 3 2 1 1 0 -0 -0 0 0 -0 -0 -0 -0 -0 -0 0 1 1 1 2 1 1 1 2 0 -1 0 0
12 9 7 6 5 4 4 4 4 5 5 5 4 4 2 2 2 1 0 0 0 -0 -0 -0 -0 -0 -0 -0 -1 -1 -1 0 1 1 2 1 1 1 1 0 -0 -1 -1
8 7 6 5 4 4 3 3 3 4 4 4 3 1 1 1 1 -0 -0 1 1 -0 -1 -1 -1 -1 -1 -2 -1 -2 -2 -1 -1 0 0 -0 0 0 0 0 0 -0 -1
5 5 4 4 3 2 2 2 3 3 3 3 3 1 0 -0 -0 -0 -0 -0 0 -0 -0 0 0 -0 -1 -1 -1 -2 -1 -1 -1 -1 -1 -1 -1 -1 -1 -0 -0 -0 -0